Weather History for KMTH - August, 2012

Change the Weather History Date:

Monday, August 20, 2012

  Actual Average Record
Temperature  
Mean Temperature 88 °F 85 °F  
Max Temperature 95 °F 91 °F 95 °F (2010)
Min Temperature 81 °F 79 °F 73 °F (2003)
Degree Days  
Heating Degree Days 0 0  
Month to date heating degree days 0 0  
Since 1 June heating degree days 0 0  
Since 1 July heating degree days 0 0  
Cooling Degree Days 23 20  
Month to date cooling degree days 439 412  
Year to date cooling degree days 3448 3169  
Since 1 June cooling degree days 1609 1626  
Growing Degree Days 37 (Base 50)    
Moisture  
Dew Point 74 °F    
Average Humidity 68    
Maximum Humidity 79    
Minimum Humidity 56    
Precipitation  
Precipitation 0.00 in 0.20 in 2.39 in (2003)
Month to date precipitation 1.08 4.10  
Year to date precipitation 31.50 25.93  
Snow  
Snow 0.00 in - - ()
Month to date snowfall 0.0  
Since 1 June snowfall 0.0  
Since 1 July snowfall 0.0  
Snow Depth 0.00 in    
Sea Level Pressure  
Sea Level Pressure 30.00 in    
Wind  
Wind Speed 3 mph (South)    
Max Wind Speed 10 mph    
Max Gust Speed 15 mph    
Visibility 10 miles    
Events      
T = Trace of Precipitation, MM = Missing Value Source: NWS Daily Summary

Daily Weather History Graph

Daily Weather History Graph

Search for Another Location

Airport or City:

Trip Planner

Search our weather history database for the weather conditions in past years. The results will help you decide how hot, cold, wet, or windy it might be!

Date:

Astronomy

Aug. 20, 2012 Rise Set
Actual Time 7:00 AM EDT 7:53 PM EDT
Civil Twilight 6:37 AM EDT 8:17 PM EDT
Nautical Twilight 6:09 AM EDT 8:44 PM EDT
Astronomical Twilight 5:41 AM EDT 9:13 PM EDT
Moon 9:51 AM EDT (8/20) 9:48 PM EDT (8/20)
Length of Visible Light 13h 40m
Length of Day
12h 52m
Waxing Crescent, 11% of the Moon is Illuminated
Aug 20
Waxing Crescent
Aug 24
First Quarter
Aug 31
Full
Sep 8
Last Quarter
Sep 15
New

Hourly Weather History & Observations

Time (EDT) Temp. Heat Index Dew Point Humidity Pressure Visibility Wind Dir Wind Speed Gust Speed Precip Events Conditions
12:53 AM 84.9 °F 91.4 °F 73.0 °F 67% 30.04 in 10.0 mi South 5.8 mph - N/A   Partly Cloudy
1:53 AM 84.9 °F 91.4 °F 73.0 °F 67% 30.03 in 10.0 mi Calm Calm - N/A   Clear
2:53 AM 84.9 °F 92.1 °F 73.9 °F 69% 30.01 in 10.0 mi Variable 6.9 mph - N/A   Clear
3:53 AM 84.0 °F 91.9 °F 75.0 °F 74% 30.00 in 10.0 mi WSW 3.5 mph - N/A   Clear
4:53 AM 82.0 °F 88.6 °F 75.0 °F 79% 30.01 in 10.0 mi Calm Calm - N/A   Scattered Clouds
5:53 AM 82.0 °F 87.9 °F 73.9 °F 76% 29.99 in 10.0 mi Calm Calm - N/A   Partly Cloudy
6:53 AM 81.0 °F 86.2 °F 73.9 °F 79% 29.99 in 10.0 mi Calm Calm - N/A   Clear
7:53 AM 84.0 °F 91.9 °F 75.0 °F 74% 30.01 in 10.0 mi Calm Calm - N/A   Clear
8:53 AM 88.0 °F 97.5 °F 75.0 °F 65% 30.03 in 10.0 mi Calm Calm - N/A   Clear
9:53 AM 89.1 °F 99.1 °F 75.0 °F 63% 30.03 in 10.0 mi Calm Calm - N/A   Clear
10:53 AM 91.0 °F 101.6 °F 75.0 °F 59% 30.03 in 10.0 mi South 4.6 mph - N/A   Clear
11:53 AM 91.9 °F 101.3 °F 73.9 °F 55% 30.01 in 10.0 mi South 5.8 mph - N/A   Clear
12:53 PM 91.9 °F 101.3 °F 73.9 °F 55% 30.00 in 10.0 mi SSE 6.9 mph - N/A   Clear
1:53 PM 91.9 °F 101.3 °F 73.9 °F 55% 29.97 in 10.0 mi SSE 8.1 mph - N/A   Clear
2:53 PM 93.0 °F 104.6 °F 75.0 °F 56% 29.97 in 10.0 mi South 8.1 mph - N/A   Clear
3:53 PM 91.9 °F 103.2 °F 75.0 °F 58% 29.97 in 10.0 mi South 8.1 mph - N/A   Clear
4:53 PM 91.0 °F 102.9 °F 75.9 °F 61% 29.96 in 10.0 mi South 6.9 mph - N/A   Partly Cloudy
5:53 PM 90.0 °F 100.2 °F 75.0 °F 61% 29.94 in 10.0 mi South 6.9 mph - N/A   Clear
6:53 PM 88.0 °F 97.5 °F 75.0 °F 65% 29.96 in 10.0 mi SSE 5.8 mph - N/A   Clear
7:53 PM 86.0 °F 93.8 °F 73.9 °F 67% 29.98 in 10.0 mi Calm Calm - N/A   Clear
8:53 PM 86.0 °F 93.8 °F 73.9 °F 67% 30.00 in 10.0 mi South 3.5 mph - N/A   Clear
9:53 PM 86.0 °F 93.8 °F 73.9 °F 67% 30.01 in 10.0 mi Calm Calm - N/A   Clear
10:53 PM 84.9 °F 92.1 °F 73.9 °F 69% 30.02 in 10.0 mi Calm Calm - N/A   Clear
11:53 PM 84.9 °F 92.1 °F 73.9 °F 69% 30.03 in 10.0 mi Calm Calm - N/A   Clear